#timestamp,LO_Frequency,Hit,StdDev 
1513969215.3,286047000.3,N
1513969235.1,286047002.6,N
1513969255.8,286047002.5,N
1513969275.7,286046999.8,N
1513969295.5,286047001.8,N
1513969315.3,286046999.7,N
1513969335.2,286047002.0,N
1513969355.0,286046999.7,N
1513969355.9,286046999.7,N
1513969375.8,286047001.0,N
1513969395.6,286047000.5,N
1513969415.5,286046998.5,N
1513969435.3,286046999.6,N
1513969455.1,286047000.8,N
1513969475.9,286046999.8,N
1513969495.7,286047000.1,N
1513969515.5,286046999.8,N
1513969535.4,286047000.9,N
1513969555.2,286047000.4,N
1513969575.1,286046998.1,N
1513969576.0,286046998.1,N
1513969595.8,286047001.0,N
1513969615.6,286047000.6,N
1513969635.5,286047000.6,N
1513969655.3,286046998.9,N
1513969675.1,286046998.2,N
1513969695.9,286046998.5,N
1513969715.7,286046998.4,N
1513969735.6,286046999.3,N
1513969755.4,286046999.6,N
1513969775.2,286046996.8,N
1513969795.1,286046998.3,N
1513969796.0,286046998.3,N
1513969815.8,286046998.6,N
1513969835.7,286047000.0,N
1513969855.5,286047001.9,N
1513969875.3,286047003.6,N
1513969895.2,286047004.2,Y
1513969915.8,286047002.5,P
1513969935.6,286047000.3,N
1513969955.5,286047002.4,N
1513969975.3,286047001.5,N
1513969995.2,286047001.4,N
1513970015.9,286047002.0,N
1513970035.7,286047004.0,Y
1513970055.6,286047002.4,P
1513970075.4,286047000.1,N
1513970095.3,286047000.5,N
1513970115.1,286047001.1,N
1513970116.0,286047001.1,N
1513970135.8,286046999.3,N
1513970155.7,286046996.6,Y
1513970175.5,286046997.5,P
1513970195.3,286046997.6,N
1513970215.2,286046999.4,N
1513970235.0,286046998.6,N
1513970255.9,286046999.0,N
1513970275.7,286047001.2,N
1513970295.5,286046998.3,N
1513970315.4,286047000.7,N
1513970335.2,286047000.7,N
1513970355.0,286047002.5,N
1513970375.7,286047001.8,N
1513970395.5,286047002.8,N
1513970415.3,286047000.9,N
1513970435.2,286046998.4,N
1513970455.0,286046999.5,N
1513970455.9,286046999.5,N
1513970475.7,286046996.6,N
1513970495.6,286046996.8,N
1513970515.4,286046999.2,N
1513970535.3,286046999.3,N
1513970555.1,286046999.0,N
1513970556.0,286046999.0,N
1513970575.8,286046998.6,N
1513970595.7,286046998.6,N
1513970615.5,286047001.1,N
1513970635.3,286046998.3,N
1513970655.2,286046999.1,N
1513970675.0,286046999.3,N
1513970706.0,286046999.4,E
1513970715.9,286046999.3,N
1513970735.7,286046998.6,P
1513970755.6,286046998.2,P
1513970775.4,286047001.2,N
1513970795.2,286047001.2,N
1513970815.1,286046998.3,N
1513970835.7,286046998.2,N
1513970855.5,286046998.4,N
1513970875.4,286046998.6,N
1513970895.2,286047000.7,N
1513970915.0,286047000.7,N
1513970916.0,286047000.7,N
1513970935.8,286047001.1,N
1513970955.6,286047001.0,N
1513970975.5,286047000.2,N
1513970995.3,286046999.9,N
1513971015.1,286047000.5,N
1513971035.9,286047000.6,N
1513971055.7,286046998.5,N
1513971075.6,286047000.4,N
1513971095.4,286047002.7,N
1513971115.2,286047002.1,N
1513971135.1,286047004.3,Y
1513971136.0,286047004.3,P
1513971155.8,286047000.1,N
1513971175.7,286046999.8,N
1513971195.5,286047000.2,N
1513971215.3,286046998.2,N
1513971235.2,286046998.6,N
1513971255.0,286046998.7,N
1513971255.9,286046998.7,N
1513971275.7,286046998.3,N
1513971295.6,286046998.5,N
1513971315.4,286046998.5,N
1513971335.4,286047000.8,N
1513971355.3,286046998.9,N
1513971375.1,286046996.6,N
1513971395.9,286046999.3,N
1513971415.7,286046998.5,N
1513971435.5,286047000.7,N
1513971455.4,286046998.4,N
1513971475.2,286046998.3,N
1513971495.1,286046998.4,N
1513971496.0,286046998.4,N
1513971515.8,286046998.8,N
1513971535.6,286046999.3,N
1513971555.5,286046997.2,N
1513971575.3,286046996.7,N
1513971595.5,286046996.5,N
1513971615.4,286046999.6,N
1513971635.2,286046999.2,N
1513971655.1,286046996.8,N
1513971656.0,286046996.8,N
1513971675.8,286046999.1,N
1513971695.6,286046999.0,N
1513971715.5,286046999.1,N
1513971735.3,286046998.8,N
1513971755.2,286047000.3,N
1513971775.9,286047000.5,N
1513971795.7,286047000.0,N
1513971815.6,286047000.4,N
1513971835.4,286047000.2,N
1513971855.2,286047000.6,N
1513971875.1,286047000.3,N
1513971876.0,286047000.3,N
1513971895.8,286047000.4,N
1513971915.7,286047002.8,N
1513971935.5,286047000.2,N
1513971955.3,286047002.3,N
1513971975.2,286047000.0,N
1513971995.0,286047002.3,N
1513971995.9,286047002.3,N
1513972015.7,286046999.7,N
1513972035.6,286047001.9,N
1513972055.4,286047004.1,N
1513972075.3,286047004.1,N
1513972095.1,286047003.8,N
1513972115.8,286047004.0,N
1513972135.7,286047002.2,N
1513972155.5,286047001.7,N
1513972175.4,286047000.2,N
1513972195.2,286047002.3,N
1513972215.0,286047004.2,N
1513972215.9,286047004.2,N
1513972235.8,286047003.4,N
1513972255.6,286047003.1,N
1513972275.4,286047004.0,N
1513972295.3,286047004.3,N
1513972315.1,286046999.9,N
1513972335.9,286046998.2,N
1513972355.7,286046998.9,N
1513972375.5,286046998.7,N
1513972395.4,286046998.7,N
1513972415.2,286046998.6,N
1513972435.0,286046999.2,N
1513972435.9,286046999.2,N
1513972455.8,286046998.9,N
1513972475.6,286046998.4,N
1513972495.5,286046998.5,N
1513972515.3,286046998.9,N
1513972535.1,286046998.9,N
1513972555.9,286047001.2,N
1513972575.7,286047000.3,N
1513972595.6,286047001.2,N
1513972615.4,286046998.1,N
1513972635.2,286047002.8,N
1513972655.1,286047000.5,N
1513972656.0,286047000.5,N
1513972675.8,286047000.0,N
1513972695.7,286047000.2,N
1513972715.5,286047000.8,N
1513972735.3,286047000.7,N
1513972755.2,286047000.9,N
1513972775.9,286047000.1,N
1513972795.7,286047004.3,N
